📊 Raw Sensor Data
Showing records 35701 to 35725 of 84,882 total
| ID | Distance (ft) | Battery V | Battery A | Int Temp (°F) | Int Humid (%) | Ext Temp (°F) | Solar V | RSSI | SNR | Time Stamp |
|---|---|---|---|---|---|---|---|---|---|---|
| 49194 | 15.6 | 4.00 | 5 | 105 | 47 | 95 | 5.10 | -69 | 8 | 08/14/2025 05:15 PM |
| 49193 | 15.6 | 3.90 | 0 | 105 | 46 | 96 | 5.10 | -70 | 8 | 08/14/2025 05:00 PM |
| 49192 | 15.6 | 3.93 | 0 | 106 | 45 | 95 | 5.10 | -70 | 8 | 08/14/2025 04:45 PM |
| 49191 | 15.6 | 3.91 | 5 | 105 | 44 | 94 | 5.10 | -69 | 8 | 08/14/2025 04:30 PM |
| 49190 | 15.6 | 3.90 | 5 | 105 | 44 | 93 | 5.10 | -69 | 8 | 08/14/2025 04:15 PM |
| 49189 | 15.6 | 4.05 | 0 | 103 | 44 | 90 | 5.10 | -70 | 8 | 08/14/2025 04:00 PM |
| 49188 | 15.6 | 3.90 | 0 | 104 | 43 | 89 | 5.10 | -69 | 8 | 08/14/2025 03:45 PM |
| 49187 | 15.6 | 3.90 | 0 | 103 | 42 | 95 | 5.10 | -69 | 8 | 08/14/2025 03:30 PM |
| 49186 | 15.6 | 3.90 | 0 | 102 | 42 | 90 | 5.10 | -69 | 8 | 08/14/2025 03:15 PM |
| 49185 | 15.6 | 3.90 | 0 | 101 | 41 | 89 | 5.10 | -70 | 8 | 08/14/2025 03:00 PM |
| 49184 | 15.5 | 3.89 | 0 | 100 | 40 | 86 | 5.10 | -69 | 7 | 08/14/2025 02:45 PM |
| 49183 | 15.5 | 3.89 | 0 | 97 | 41 | 89 | 5.10 | -69 | 8 | 08/14/2025 02:30 PM |
| 49182 | 15.5 | 3.92 | 0 | 96 | 41 | 84 | 5.20 | -69 | 8 | 08/14/2025 02:15 PM |
| 49181 | 15.5 | 3.89 | 0 | 95 | 41 | 83 | 5.10 | -70 | 7 | 08/14/2025 02:00 PM |
| 49180 | 15.5 | 3.89 | 0 | 93 | 41 | 85 | 5.10 | -68 | 8 | 08/14/2025 01:45 PM |
| 49179 | 15.5 | 4.09 | 0 | 93 | 41 | 84 | 5.10 | -71 | 8 | 08/14/2025 01:30 PM |
| 49178 | 15.5 | 3.89 | 0 | 90 | 41 | 84 | 5.10 | -69 | 8 | 08/14/2025 01:15 PM |
| 49177 | 15.5 | 3.89 | 0 | 88 | 42 | 81 | 5.10 | -69 | 8 | 08/14/2025 01:00 PM |
| 49176 | 15.5 | 3.89 | 0 | 87 | 42 | 82 | 5.10 | -70 | 8 | 08/14/2025 12:45 PM |
| 49175 | 15.5 | 3.93 | 0 | 85 | 42 | 79 | 5.10 | -71 | 8 | 08/14/2025 12:30 PM |
| 49174 | 15.5 | 3.89 | 0 | 84 | 42 | 79 | 5.10 | -71 | 7 | 08/14/2025 12:15 PM |
| 49173 | 15.5 | 4.07 | 0 | 83 | 42 | 76 | 5.10 | -69 | 7 | 08/14/2025 12:00 PM |
| 49172 | 15.5 | 3.89 | 0 | 82 | 42 | 81 | 5.10 | -69 | 8 | 08/14/2025 11:45 AM |
| 49171 | 15.5 | 3.89 | 0 | 81 | 42 | 74 | 5.10 | -69 | 7 | 08/14/2025 11:30 AM |
| 49170 | 15.5 | 3.89 | 0 | 80 | 42 | 75 | 5.10 | -69 | 8 | 08/14/2025 11:15 AM |